sat.trackr.live / text

‹ back to catalog

STARLINK-4016

NORAD 52603 · 2022-052F

PAYLOAD ACTIVE UNKNOWN

§ Identity

Operator
Country
US
Launch date
2022-05-14
Launch site
AFETR
Launch vehicle
Mass (kg)
RCS (m²)

Purposes: comms

External: N2YO · Heavens-Above · Gunter

§ Orbital elements

Epoch: 2026-05-25T03:45:38.685600Z

Period
95.44 min
Inclination
53.2165°
Eccentricity
0.0001541
Mean motion
15.08805281 rev/d
Perigee alt
538.8 km
Apogee alt
540.9 km
Semi-major
6,918.0 km
B*
5.6665e-4
RAAN
295.8554°
Arg perigee
88.5491°
Mean anomaly
271.5677°
Rev number
22,320

§ Raw data

STARLINK-40161 52603U 22052F   26145.15669775  .00008733  00000+0  56665-3 0  99922 52603  53.2165 295.8554 0001541  88.5491 271.5677 15.08805281223206

JSON: /api/v1/satellites/52603 · /tle

For live sub-satellite position, see the globe view (requires WebGL).

§ Visibility from observer

Set your observer location to see the next 7 days of passes ≥ 10°. The values pass through the URL so the page stays shareable.

No JS? Fill the form by hand. The geolocation button needs JavaScript.